Jersey, United Kingdom

5:06 AM BST on August 21, 2017 (GMT +0100)
Jersey

Weather History for EGJJ - October, 2013

Change the Weather History Date:

Thursday, October 31, 2013

  Actual Average Record
Temperature  
Mean Temperature 55 °F -  
Max Temperature 57 °F 51 °F 67 °F (2014)
Min Temperature 53 °F 45 °F 41 °F (2008)
Degree Days  
Heating Degree Days 10    
Growing Degree Days 5 (Base 50)    
Moisture  
Dew Point 51 °F    
Average Humidity 83    
Maximum Humidity 94    
Minimum Humidity 68    
Precipitation  
Precipitation 0.00 in - - ()
Sea Level Pressure  
Sea Level Pressure 30.10 in    
Wind  
Wind Speed 15 mph ()    
Max Wind Speed 22 mph    
Max Gust Speed -    
Visibility 8.0 miles    
Events Rain    
Averages and records for this station are not official NWS values.
T = Trace of Precipitation, MM = Missing Value Source: Averaged Metar Reports

Daily Weather History Graph

Daily Weather History Graph

Search for Another Location

Airport or City:

Trip Planner

Search our weather history database for the weather conditions in past years. The results will help you decide how hot, cold, wet, or windy it might be!

Date:

Astronomy

Oct. 31, 2013 Rise Set
Actual Time 6:55 AM GMT 4:49 PM GMT
Civil Twilight 6:21 AM GMT 5:22 PM GMT
Nautical Twilight 5:44 AM GMT 5:59 PM GMT
Astronomical Twilight 5:07 AM GMT 6:36 PM GMT
Moon 3:13 AM GMT (10/31) 3:12 PM GMT (10/31)
Length of Visible Light 11h 00m
Length of Day
9h 54m
Waning Crescent, 11% of the Moon is Illuminated
Oct 31
Waning Crescent
Nov 3
New
Nov 10
First Quarter
Nov 17
Full
Nov 25
Last Quarter

Hourly Weather History & Observations

Time (GMT) Temp. Dew Point Humidity Pressure Visibility Wind Dir Wind Speed Gust Speed Precip Events Conditions
12:00 AM 55 °F 51 °F 80% 30.17 in 19 mi South 21.9 mph - -   Overcast
3:00 AM 55 °F 52 °F 85% 30.14 in 6 mi South 19.6 mph - - Rain Rain
3:50 AM 55.4 °F 51.8 °F 88% 30.12 in 6.2 mi South 16.1 mph - N/A   Partly Cloudy
4:20 AM 55.4 °F 50.0 °F 82% 30.12 in 6.2 mi South 15.0 mph - N/A   Partly Cloudy
4:50 AM 53.6 °F 50.0 °F 88% 30.09 in 6.2 mi South 12.7 mph - N/A   Partly Cloudy
5:20 AM 55.4 °F 51.8 °F 88% 30.12 in 6.2 mi South 17.3 mph - N/A   Mostly Cloudy
5:50 AM 55.4 °F 51.8 °F 88% 30.09 in 6.2 mi South 13.8 mph - N/A   Mostly Cloudy
6:00 AM 56 °F 52 °F 83% 30.11 in 9 mi South 20.7 mph - -   Partly Cloudy
6:20 AM 55.4 °F 51.8 °F 88% 30.09 in 6.2 mi South 16.1 mph - N/A   Mostly Cloudy
6:50 AM 55.4 °F 51.8 °F 88% 30.09 in 6.2 mi SSW 17.3 mph - N/A   Mostly Cloudy
7:20 AM 57.2 °F 51.8 °F 82% 30.09 in 6.2 mi SSW 17.3 mph - N/A   Mostly Cloudy
7:50 AM 55.4 °F 51.8 °F 88% 30.09 in 6.2 mi SSW 17.3 mph - N/A   Mostly Cloudy
8:20 AM 55.4 °F 51.8 °F 88% 30.09 in 6.2 mi South 17.3 mph - N/A   Mostly Cloudy
8:50 AM 55.4 °F 53.6 °F 94% 30.09 in 6.2 mi SW 17.3 mph - N/A   Mostly Cloudy
9:00 AM 56 °F 54 °F 89% 30.11 in 9 mi SSW 18.4 mph - - Rain Light Rain
9:20 AM 53.6 °F 51.8 °F 94% 30.09 in 6.2 mi WNW 18.4 mph - N/A Rain Light Rain
9:50 AM 53.6 °F 51.8 °F 94% 30.12 in 6.2 mi West 13.8 mph - N/A Rain Light Rain
10:20 AM 55.4 °F 51.8 °F 88% 30.12 in 6.2 mi WNW 6.9 mph - N/A   Mostly Cloudy
10:50 AM 55.4 °F 51.8 °F 88% 30.12 in 6.2 mi WSW 16.1 mph - N/A   Mostly Cloudy
11:00 AM 56 °F 52 °F 81% 30.14 in 19 mi WSW 15.0 mph - - Rain Light Rain
11:20 AM 57.2 °F 51.8 °F 82% 30.12 in 6.2 mi WSW 13.8 mph - N/A   Mostly Cloudy
11:50 AM 57.2 °F 53.6 °F 88% 30.12 in 6.2 mi WSW 16.1 mph - N/A   Scattered Clouds
12:00 PM 57 °F 53 °F 81% 30.13 in 19 mi WSW 16.1 mph - -   Partly Cloudy
12:20 PM 57.2 °F 51.8 °F 82% 30.12 in 6.2 mi WSW 12.7 mph - N/A   Partly Cloudy
12:50 PM 57.2 °F 51.8 °F 82% 30.12 in 6.2 mi WSW 16.1 mph - N/A   Partly Cloudy
1:00 PM 57 °F 52 °F 79% 30.13 in 17 mi WSW 11.5 mph - -   Partly Cloudy
1:20 PM 57.2 °F 51.8 °F 82% 30.12 in 6.2 mi WSW 17.3 mph - N/A   Partly Cloudy
1:50 PM 57.2 °F 50.0 °F 77% 30.12 in 6.2 mi WSW 15.0 mph - N/A   Partly Cloudy
2:20 PM 57.2 °F 50.0 °F 77% 30.09 in 6.2 mi WSW 12.7 mph - N/A   Partly Cloudy
2:50 PM 57.2 °F 51.8 °F 82% 30.09 in 6.2 mi WSW 15.0 mph - N/A   Partly Cloudy
3:00 PM 57 °F 51 °F 74% 30.12 in 16 mi WSW 15.0 mph - -   Overcast
3:20 PM 57.2 °F 51.8 °F 82% 30.09 in 6.2 mi WSW 13.8 mph - N/A   Partly Cloudy
3:50 PM 57.2 °F 51.8 °F 82% 30.09 in 6.2 mi SW 11.5 mph - N/A   Partly Cloudy
4:20 PM 57.2 °F 51.8 °F 82% 30.09 in 6.2 mi WSW 11.5 mph - N/A   Scattered Clouds
4:50 PM 57.2 °F 51.8 °F 82% 30.09 in 6.2 mi SW 11.5 mph - N/A   Partly Cloudy
5:20 PM 57.2 °F 51.8 °F 82% 30.09 in 6.2 mi SW 12.7 mph - N/A   Partly Cloudy
5:50 PM 57.2 °F 48.2 °F 72% 30.09 in 6.2 mi WSW 16.1 mph - N/A   Partly Cloudy
6:00 PM 57 °F 49 °F 68% 30.09 in 19 mi SW 16.1 mph - -   Overcast
6:20 PM 57.2 °F 50.0 °F 77% 30.09 in 6.2 mi SW 16.1 mph - N/A   Partly Cloudy
6:50 PM 57.2 °F 50.0 °F 77% 30.09 in 6.2 mi SW 18.4 mph - N/A   Partly Cloudy
7:20 PM 57.2 °F 50.0 °F 77% 30.06 in 6.2 mi WSW 18.4 mph - N/A   Partly Cloudy
7:50 PM 57.2 °F 50.0 °F 77% 30.06 in 6.2 mi WSW 18.4 mph - N/A   Partly Cloudy
8:20 PM 57.2 °F 51.8 °F 82% 30.06 in 6.2 mi WSW 19.6 mph - N/A   Partly Cloudy
8:50 PM 57.2 °F 51.8 °F 82% 30.06 in 6.2 mi WSW 17.3 mph - N/A   Partly Cloudy
9:00 PM 56 °F 51 °F 80% 30.08 in 9 mi WSW 16.1 mph - -   Overcast